Regional Weather Roundup
Issued by NWS Cleveland, OH

Home | Current Version | Previous Version | Text Only | Print | Product List | Glossary Off
Versions: 1 2 3 4 5 6 7 8 9 10 11 12 13 14 15 16 17 18 19 20 21 22 23 24 25 26 27 28 29 30 31 32 33 34 35 36 37 38 39 40 41 42 43 44 45 46 47 48 49 50

000
ASUS41 KCLE 230610
RWRCLE
OHIO REGIONAL WEATHER ROUNDUP
NATIONAL WEATHER SERVICE CLEVELAND, OH
100 AM EST TUE JAN 23 2018

NOTE: "FAIR" INDICATES FEW OR NO CLOUDS BELOW 12,000 FEET WITH NO
SIGNIFICANT WEATHER AND/OR OBSTRUCTIONS TO VISIBILITY.

OHZ001>008-015>018-024>027-034-035-043-044-230700-
   NORTHWEST OHIO

CITY           SKY/WX    TMP DP  RH WIND       PRES   REMARKS
DEFIANCE       FAIR      42  36  79 W9        29.55R
FINDLAY        FAIR      47  38  71 W18G30    29.55R
TOLEDO EXPRESS FAIR      46  42  86 SW17      29.52S
TOLEDO EXEC    MOCLDY    47  42  83 SW12      29.53R
LIMA           FAIR      43  39  86 W17       29.58R
$$

OHZ009>014-019>023-028>033-038-089-230700-
   NORTHEAST OHIO

CITY           SKY/WX    TMP DP  RH WIND       PRES   REMARKS
CLE-HOPKINS    LGT RAIN  48  44  86 SW9       29.62R
CLE-LAKEFRONT  TSTM      47  43  86 SW13      29.58R
CUY CO. ARPT   NOT AVBL
LORAIN-ELYRIA  RAIN      46  40  79 S13G20    29.57F
ASHTABULA      CLOUDY    54  46  74 S12       29.53F
AKRON-CANTON   TSTM      51  46  83 S10G22    29.56S
WOOSTER        LGT RAIN  47  45  93 W13G24    29.59R
MANSFIELD      CLOUDY    47  45  93 S14       29.57F
YOUNGSTOWN     CLOUDY    55  43  63 S10G25    29.54F THUNDER
$$

OHZ042-051>053-060>062-070>072-077>081-230700-
  SOUTHWEST OHIO

CITY           SKY/WX    TMP DP  RH WIND       PRES   REMARKS
CINC-COVINGTON FAIR      46  34  62 SW12      29.63S
CINC-LUNKEN    FAIR      48  34  58 SW13G23   29.66R
HAMILTON       FAIR      48  35  60 SW6       29.64R
DAYTON         MOCLDY    45  39  79 W16       29.60S
WRIGHT-PAT AFB CLEAR     47  36  65 SW13      29.60R
DAYTON GENERAL FAIR      48  36  63 SW15G25   29.61R
WILMINGTON     MOCLDY    49  38  65 W20G28    29.61S
$$

OHZ036-037-039>041-045>050-054>059-063>069-073>076-082>088-230700-
  CENTRAL AND SOUTHEAST OHIO

CITY           SKY/WX    TMP DP  RH WIND       PRES   REMARKS
COLUMBUS       CLOUDY    49  47  93 S6        29.60F
OSU AIRPORT    CLOUDY    50  45  83 SW10      29.59S
BOLTON FIELD   CLOUDY    49  44  83 SW10G20   29.60F
RICKENBACK AFB CLOUDY    48  47  96 W8        29.59F
NEWARK         CLOUDY    50  45  83 SW10      29.60S
MARION         CLOUDY    47  44  90 SW12      29.58S
LANCASTER      CLOUDY    50  46  86 SW8       29.61S
ZANESVILLE     LGT RAIN  52  47  83 SW10      29.61F
NEW PHILLY     NOT AVBL
$$




USA.gov is the U.S. government's official web portal to all federal, state and local government web resources and services.